Time,TemperatureF,DewpointF,PressureIn,WindDirection,WindDirectionDegrees,WindSpeedMPH,WindSpeedGustMPH,Humidity,HourlyPrecipIn,Conditions,Clouds,dailyrainin,SoftwareType,DateUTC
2014-01-05 00:00:00,38.5,24.1,30.04,North,0,0.0,0.0,56,0.00,,,0.00,WUHU216HW,2014-01-05 05:00:00,
2014-01-05 00:01:00,38.5,24.1,30.04,North,0,0.0,0.0,56,0.00,,,0.00,WUHU216HW,2014-01-05 05:01:00,
2014-01-05 00:06:00,38.7,24.7,30.04,North,0,0.0,0.0,57,0.00,,,0.00,WUHU216HW,2014-01-05 05:06:00,
2014-01-05 00:07:00,38.7,24.7,30.04,North,0,0.0,0.0,57,0.00,,,0.00,WUHU216HW,2014-01-05 05:07:00,
2014-01-05 00:12:00,39.1,24.6,30.03,North,0,0.0,0.0,56,0.00,,,0.00,WUHU216HW,2014-01-05 05:12:00,
2014-01-05 00:17:00,39.2,25.2,30.03,North,0,0.0,0.0,57,0.00,,,0.00,WUHU216HW,2014-01-05 05:17:00,
2014-01-05 00:22:00,39.2,25.2,30.03,North,0,0.0,0.0,57,0.00,,,0.00,WUHU216HW,2014-01-05 05:22:00,
2014-01-05 00:27:00,39.2,25.2,30.03,North,0,0.0,0.0,57,0.00,,,0.00,WUHU216HW,2014-01-05 05:27:00,
2014-01-05 00:32:00,39.2,25.2,30.03,North,0,0.0,0.0,57,0.00,,,0.00,WUHU216HW,2014-01-05 05:32:00,
2014-01-05 00:37:00,39.2,25.2,30.04,North,0,0.0,0.0,57,0.00,,,0.00,WUHU216HW,2014-01-05 05:37:00,
2014-01-05 00:42:00,39.2,25.2,30.03,North,0,0.0,0.0,57,0.00,,,0.00,WUHU216HW,2014-01-05 05:42:00,
2014-01-05 00:47:00,39.1,25.5,30.03,North,0,0.0,0.0,58,0.00,,,0.00,WUHU216HW,2014-01-05 05:47:00,
2014-01-05 00:52:00,39.2,25.6,30.03,North,0,0.0,0.0,58,0.00,,,0.00,WUHU216HW,2014-01-05 05:52:00,
2014-01-05 00:57:00,39.1,25.5,30.03,North,0,0.0,0.0,58,0.00,,,0.00,WUHU216HW,2014-01-05 05:57:00,
2014-01-05 01:02:00,39.2,25.6,30.03,North,0,0.0,0.0,58,0.00,,,0.00,WUHU216HW,2014-01-05 06:02:00,
2014-01-05 01:07:00,39.2,25.6,30.03,North,0,0.0,0.0,58,0.00,,,0.00,WUHU216HW,2014-01-05 06:07:00,
2014-01-05 01:12:00,39.2,26.0,30.03,North,0,0.0,0.0,59,0.00,,,0.00,WUHU216HW,2014-01-05 06:12:00,
2014-01-05 01:17:00,39.2,26.0,30.03,North,0,0.0,0.0,59,0.00,,,0.00,WUHU216HW,2014-01-05 06:17:00,
2014-01-05 01:22:00,39.2,26.0,30.03,North,0,0.0,0.0,59,0.00,,,0.00,WUHU216HW,2014-01-05 06:22:00,
2014-01-05 01:27:00,39.2,26.0,30.03,North,0,0.0,0.0,59,0.00,,,0.00,WUHU216HW,2014-01-05 06:27:00,
2014-01-05 01:32:00,39.2,26.0,30.03,North,0,0.0,0.0,59,0.00,,,0.00,WUHU216HW,2014-01-05 06:32:00,
2014-01-05 01:37:00,39.2,26.0,30.03,North,0,0.0,0.0,59,0.00,,,0.00,WUHU216HW,2014-01-05 06:37:00,
2014-01-05 01:42:00,39.2,26.0,30.04,North,0,0.0,0.0,59,0.00,,,0.00,WUHU216HW,2014-01-05 06:42:00,
2014-01-05 01:47:00,39.2,26.0,30.04,North,0,0.0,0.0,59,0.00,,,0.00,WUHU216HW,2014-01-05 06:47:00,
2014-01-05 01:52:00,39.2,26.0,30.04,North,0,0.0,0.0,59,0.00,,,0.00,WUHU216HW,2014-01-05 06:52:00,
2014-01-05 01:57:00,39.2,26.0,30.04,North,0,0.0,0.0,59,0.00,,,0.00,WUHU216HW,2014-01-05 06:57:00,
2014-01-05 02:02:00,39.4,26.2,30.04,North,0,0.0,0.0,59,0.00,,,0.00,WUHU216HW,2014-01-05 07:02:00,
2014-01-05 02:07:00,39.4,26.2,30.04,North,0,0.0,0.0,59,0.00,,,0.00,WUHU216HW,2014-01-05 07:07:00,
2014-01-05 02:12:00,39.4,26.2,30.04,North,0,0.0,0.0,59,0.00,,,0.00,WUHU216HW,2014-01-05 07:12:00,
2014-01-05 02:17:00,39.4,26.2,30.04,North,0,0.0,0.0,59,0.00,,,0.00,WUHU216HW,2014-01-05 07:17:00,
2014-01-05 02:22:00,39.4,26.6,30.04,North,0,0.0,0.0,60,0.00,,,0.00,WUHU216HW,2014-01-05 07:22:00,
2014-01-05 02:27:00,39.4,26.6,30.04,North,0,0.0,0.0,60,0.00,,,0.00,WUHU216HW,2014-01-05 07:27:00,
2014-01-05 02:32:00,39.4,26.6,30.03,North,0,0.0,0.0,60,0.00,,,0.00,WUHU216HW,2014-01-05 07:32:00,
2014-01-05 02:37:00,39.4,27.0,30.03,North,0,0.0,0.0,61,0.00,,,0.00,WUHU216HW,2014-01-05 07:37:00,
2014-01-05 02:42:00,39.2,27.6,30.03,North,0,0.0,0.0,63,0.00,,,0.00,WUHU216HW,2014-01-05 07:42:00,
2014-01-05 02:47:00,39.2,27.6,30.02,North,0,0.0,0.0,63,0.00,,,0.00,WUHU216HW,2014-01-05 07:47:00,
2014-01-05 02:52:00,39.2,27.6,30.02,North,0,0.0,0.0,63,0.00,,,0.00,WUHU216HW,2014-01-05 07:52:00,
2014-01-05 02:57:00,39.2,27.6,30.02,North,0,0.0,0.0,63,0.00,,,0.00,WUHU216HW,2014-01-05 07:57:00,
2014-01-05 03:02:00,39.1,27.5,30.02,North,0,0.0,0.0,63,0.00,,,0.00,WUHU216HW,2014-01-05 08:02:00,
2014-01-05 03:07:00,39.1,27.8,30.02,North,0,0.0,0.0,64,0.00,,,0.00,WUHU216HW,2014-01-05 08:07:00,
2014-01-05 03:12:00,39.1,27.8,30.01,North,0,0.0,0.0,64,0.00,,,0.00,WUHU216HW,2014-01-05 08:12:00,
2014-01-05 03:17:00,39.1,27.8,30.01,North,0,0.0,0.0,64,0.00,,,0.00,WUHU216HW,2014-01-05 08:17:00,
2014-01-05 03:22:00,38.9,27.6,30.01,North,0,0.0,0.0,64,0.00,,,0.00,WUHU216HW,2014-01-05 08:22:00,
2014-01-05 03:27:00,38.9,27.6,30.01,North,0,0.0,0.0,64,0.00,,,0.00,WUHU216HW,2014-01-05 08:27:00,
2014-01-05 03:32:00,38.9,27.6,30.00,North,0,0.0,0.0,64,0.00,,,0.00,WUHU216HW,2014-01-05 08:32:00,
2014-01-05 03:37:00,38.9,28.0,30.00,North,0,0.0,0.0,65,0.00,,,0.00,WUHU216HW,2014-01-05 08:37:00,
2014-01-05 03:42:00,38.9,28.0,30.00,North,0,0.0,0.0,65,0.00,,,0.00,WUHU216HW,2014-01-05 08:42:00,
2014-01-05 03:47:00,38.9,28.0,30.00,North,0,0.0,0.0,65,0.00,,,0.00,WUHU216HW,2014-01-05 08:47:00,
2014-01-05 03:52:00,38.9,28.0,30.00,North,0,0.0,0.0,65,0.00,,,0.00,WUHU216HW,2014-01-05 08:52:00,
2014-01-05 03:57:00,38.7,27.9,30.00,North,0,0.0,0.0,65,0.00,,,0.00,WUHU216HW,2014-01-05 08:57:00,
2014-01-05 04:02:00,38.7,27.9,30.00,North,0,0.0,0.0,65,0.00,,,0.00,WUHU216HW,2014-01-05 09:02:00,
2014-01-05 04:07:00,38.7,27.9,30.00,North,0,0.0,0.0,65,0.00,,,0.00,WUHU216HW,2014-01-05 09:07:00,
2014-01-05 04:12:00,38.7,27.9,29.99,North,0,0.0,0.0,65,0.00,,,0.00,WUHU216HW,2014-01-05 09:12:00,
2014-01-05 04:17:00,38.7,27.9,29.99,North,0,0.0,0.0,65,0.00,,,0.00,WUHU216HW,2014-01-05 09:17:00,
2014-01-05 04:22:00,38.5,27.7,29.99,North,0,0.0,0.0,65,0.00,,,0.00,WUHU216HW,2014-01-05 09:22:00,
2014-01-05 04:27:00,38.5,28.1,29.99,North,0,0.0,0.0,66,0.00,,,0.00,WUHU216HW,2014-01-05 09:27:00,
2014-01-05 04:32:00,38.5,28.1,29.98,North,0,0.0,0.0,66,0.00,,,0.00,WUHU216HW,2014-01-05 09:32:00,
2014-01-05 04:37:00,38.5,28.1,29.98,North,0,0.0,0.0,66,0.00,,,0.00,WUHU216HW,2014-01-05 09:37:00,
2014-01-05 04:42:00,38.5,28.1,29.98,North,0,0.0,0.0,66,0.00,,,0.00,WUHU216HW,2014-01-05 09:42:00,
2014-01-05 04:47:00,38.3,27.9,29.97,North,0,0.0,0.0,66,0.00,,,0.00,WUHU216HW,2014-01-05 09:47:00,
2014-01-05 04:52:00,38.3,27.9,29.98,North,0,0.0,0.0,66,0.00,,,0.00,WUHU216HW,2014-01-05 09:52:00,
2014-01-05 04:57:00,38.3,27.9,29.97,North,0,0.0,0.0,66,0.00,,,0.00,WUHU216HW,2014-01-05 09:57:00,
2014-01-05 05:02:00,38.3,27.9,29.97,North,0,0.0,0.0,66,0.00,,,0.00,WUHU216HW,2014-01-05 10:02:00,
2014-01-05 05:07:00,38.2,27.7,29.97,North,0,0.0,0.0,66,0.00,,,0.00,WUHU216HW,2014-01-05 10:07:00,
2014-01-05 05:12:00,38.2,27.7,29.97,North,0,0.0,0.0,66,0.00,,,0.00,WUHU216HW,2014-01-05 10:12:00,
2014-01-05 05:17:00,38.2,27.7,29.97,North,0,0.0,0.0,66,0.00,,,0.00,WUHU216HW,2014-01-05 10:17:00,
2014-01-05 05:22:00,38.0,27.6,29.96,North,0,0.0,0.0,66,0.00,,,0.00,WUHU216HW,2014-01-05 10:22:00,
2014-01-05 05:27:00,38.0,27.6,29.96,North,0,0.0,0.0,66,0.00,,,0.00,WUHU216HW,2014-01-05 10:27:00,
2014-01-05 05:32:00,37.8,27.8,29.96,North,0,0.0,0.0,67,0.00,,,0.00,WUHU216HW,2014-01-05 10:32:00,
2014-01-05 05:37:00,37.8,27.8,29.96,North,0,0.0,0.0,67,0.00,,,0.00,WUHU216HW,2014-01-05 10:37:00,
2014-01-05 05:42:00,37.8,27.8,29.96,North,0,0.0,0.0,67,0.00,,,0.00,WUHU216HW,2014-01-05 10:42:00,
2014-01-05 05:47:00,37.8,27.8,29.96,North,0,0.0,0.0,67,0.00,,,0.00,WUHU216HW,2014-01-05 10:47:00,
2014-01-05 05:52:00,37.6,27.6,29.96,North,0,0.0,0.0,67,0.00,,,0.00,WUHU216HW,2014-01-05 10:52:00,
2014-01-05 05:57:00,37.6,27.6,29.96,North,0,0.0,0.0,67,0.00,,,0.00,WUHU216HW,2014-01-05 10:57:00,
2014-01-05 06:02:00,37.4,27.5,29.96,North,0,0.0,0.0,67,0.00,,,0.00,WUHU216HW,2014-01-05 11:02:00,
2014-01-05 06:07:00,37.4,27.5,29.95,North,0,0.0,0.0,67,0.00,,,0.00,WUHU216HW,2014-01-05 11:07:00,
2014-01-05 06:12:00,37.4,27.5,29.95,North,0,0.0,0.0,67,0.00,,,0.00,WUHU216HW,2014-01-05 11:12:00,
2014-01-05 06:17:00,37.3,27.3,29.95,North,0,0.0,0.0,67,0.00,,,0.00,WUHU216HW,2014-01-05 11:17:00,
2014-01-05 06:22:00,37.3,27.3,29.95,North,0,0.0,0.0,67,0.00,,,0.00,WUHU216HW,2014-01-05 11:22:00,
2014-01-05 06:27:00,37.1,27.6,29.94,North,0,0.0,0.0,68,0.00,,,0.00,WUHU216HW,2014-01-05 11:27:00,
2014-01-05 06:32:00,37.1,27.6,29.95,North,0,0.0,0.0,68,0.00,,,0.00,WUHU216HW,2014-01-05 11:32:00,
2014-01-05 06:37:00,37.1,27.6,29.94,North,0,0.0,0.0,68,0.00,,,0.00,WUHU216HW,2014-01-05 11:37:00,
2014-01-05 06:42:00,37.1,27.9,29.94,North,0,0.0,0.0,69,0.00,,,0.00,WUHU216HW,2014-01-05 11:42:00,
2014-01-05 06:47:00,37.1,27.9,29.93,North,0,0.0,0.0,69,0.00,,,0.00,WUHU216HW,2014-01-05 11:47:00,
2014-01-05 06:52:00,37.1,27.9,29.93,North,0,0.0,0.0,69,0.00,,,0.00,WUHU216HW,2014-01-05 11:52:00,
2014-01-05 06:57:00,37.1,27.9,29.94,North,0,0.0,0.0,69,0.00,,,0.00,WUHU216HW,2014-01-05 11:57:00,
2014-01-05 07:02:00,37.1,28.3,29.94,North,0,0.0,0.0,70,0.00,,,0.00,WUHU216HW,2014-01-05 12:02:00,
2014-01-05 07:07:00,37.1,28.3,29.93,North,0,0.0,0.0,70,0.00,,,0.00,WUHU216HW,2014-01-05 12:07:00,
2014-01-05 07:12:00,37.1,28.3,29.94,North,0,0.0,0.0,70,0.00,,,0.00,WUHU216HW,2014-01-05 12:12:00,
2014-01-05 07:17:00,37.1,28.6,29.94,North,0,0.0,0.0,71,0.00,,,0.00,WUHU216HW,2014-01-05 12:17:00,
2014-01-05 07:22:00,37.1,28.6,29.93,North,0,0.0,0.0,71,0.00,,,0.00,WUHU216HW,2014-01-05 12:22:00,
2014-01-05 07:27:00,37.3,28.8,29.93,North,0,0.0,0.0,71,0.00,,,0.00,WUHU216HW,2014-01-05 12:27:00,
2014-01-05 07:32:00,37.3,28.8,29.93,North,0,0.0,0.0,71,0.00,,,0.00,WUHU216HW,2014-01-05 12:32:00,
2014-01-05 07:37:00,37.3,29.1,29.93,North,0,0.0,0.0,72,0.00,,,0.00,WUHU216HW,2014-01-05 12:37:00,
2014-01-05 07:42:00,37.4,29.3,29.93,North,0,0.0,0.0,72,0.00,,,0.00,WUHU216HW,2014-01-05 12:42:00,
2014-01-05 07:47:00,37.4,29.3,29.93,North,0,0.0,0.0,72,0.00,,,0.00,WUHU216HW,2014-01-05 12:47:00,
2014-01-05 07:52:00,37.4,29.6,29.93,North,0,0.0,0.0,73,0.00,,,0.00,WUHU216HW,2014-01-05 12:52:00,
2014-01-05 07:57:00,37.4,29.6,29.93,North,0,0.0,0.0,73,0.00,,,0.00,WUHU216HW,2014-01-05 12:57:00,
2014-01-05 08:02:00,37.4,29.6,29.93,North,0,0.0,0.0,73,0.00,,,0.00,WUHU216HW,2014-01-05 13:02:00,
2014-01-05 08:07:00,37.6,29.8,29.92,North,0,0.0,0.0,73,0.00,,,0.00,WUHU216HW,2014-01-05 13:07:00,
2014-01-05 08:12:00,37.6,30.1,29.92,North,0,0.0,0.0,74,0.00,,,0.00,WUHU216HW,2014-01-05 13:12:00,
2014-01-05 08:17:00,37.6,30.1,29.92,North,0,0.0,0.0,74,0.00,,,0.00,WUHU216HW,2014-01-05 13:17:00,
2014-01-05 08:22:00,37.8,30.2,29.92,North,0,0.0,0.0,74,0.00,,,0.00,WUHU216HW,2014-01-05 13:22:00,
2014-01-05 08:27:00,37.8,30.2,29.92,North,0,0.0,0.0,74,0.00,,,0.00,WUHU216HW,2014-01-05 13:27:00,
2014-01-05 08:32:00,37.8,30.2,29.92,North,0,0.0,0.0,74,0.00,,,0.00,WUHU216HW,2014-01-05 13:32:00,
2014-01-05 08:37:00,37.8,30.2,29.92,North,0,0.0,0.0,74,0.00,,,0.00,WUHU216HW,2014-01-05 13:37:00,
2014-01-05 08:42:00,37.8,30.2,29.92,North,0,0.0,0.0,74,0.00,,,0.00,WUHU216HW,2014-01-05 13:42:00,
2014-01-05 08:47:00,37.8,30.2,29.90,North,0,0.0,0.0,74,0.00,,,0.00,WUHU216HW,2014-01-05 13:47:00,
2014-01-05 08:52:00,38.0,30.4,29.90,North,0,0.0,0.0,74,0.00,,,0.00,WUHU216HW,2014-01-05 13:52:00,
2014-01-05 08:57:00,38.0,30.8,29.90,North,0,0.0,0.0,75,0.00,,,0.00,WUHU216HW,2014-01-05 13:57:00,
2014-01-05 09:02:00,38.2,31.0,29.90,North,0,0.0,0.0,75,0.00,,,0.00,WUHU216HW,2014-01-05 14:02:00,
2014-01-05 09:07:00,38.2,31.0,29.90,North,0,0.0,0.0,75,0.00,,,0.00,WUHU216HW,2014-01-05 14:07:00,
2014-01-05 09:12:00,38.3,31.4,29.89,North,0,0.0,0.0,76,0.00,,,0.00,WUHU216HW,2014-01-05 14:12:00,
2014-01-05 09:17:00,38.3,31.4,29.88,North,0,0.0,0.0,76,0.00,,,0.00,WUHU216HW,2014-01-05 14:17:00,
2014-01-05 09:22:00,38.5,32.0,29.88,North,0,0.0,0.0,77,0.00,,,0.00,WUHU216HW,2014-01-05 14:22:00,
2014-01-05 09:27:00,38.5,32.0,29.88,North,0,0.0,0.0,77,0.00,,,0.00,WUHU216HW,2014-01-05 14:27:00,
2014-01-05 09:32:00,38.7,32.1,29.87,North,0,0.0,0.0,77,0.00,,,0.00,WUHU216HW,2014-01-05 14:32:00,
2014-01-05 09:37:00,38.9,32.3,29.87,North,0,0.0,0.0,77,0.00,,,0.00,WUHU216HW,2014-01-05 14:37:00,
2014-01-05 09:42:00,38.9,32.3,29.86,North,0,0.0,0.0,77,0.00,,,0.00,WUHU216HW,2014-01-05 14:42:00,
2014-01-05 09:47:00,39.1,32.5,29.86,North,0,0.0,0.0,77,0.00,,,0.00,WUHU216HW,2014-01-05 14:47:00,
2014-01-05 09:52:00,39.2,32.7,29.85,North,0,0.0,0.0,77,0.00,,,0.00,WUHU216HW,2014-01-05 14:52:00,
2014-01-05 09:57:00,39.2,32.7,29.84,North,0,0.0,0.0,77,0.00,,,0.00,WUHU216HW,2014-01-05 14:57:00,
2014-01-05 10:02:00,39.4,33.1,29.83,North,0,0.0,0.0,78,0.00,,,0.00,WUHU216HW,2014-01-05 15:02:00,
2014-01-05 10:07:00,39.6,33.3,29.83,North,0,0.0,0.0,78,0.00,,,0.00,WUHU216HW,2014-01-05 15:07:00,
2014-01-05 10:12:00,40.0,33.7,29.82,North,0,0.0,0.0,78,0.00,,,0.00,WUHU216HW,2014-01-05 15:12:00,
2014-01-05 10:17:00,40.0,33.7,29.83,North,0,0.0,0.0,78,0.00,,,0.00,WUHU216HW,2014-01-05 15:17:00,
2014-01-05 10:22:00,40.3,34.3,29.82,North,0,0.0,0.0,79,0.00,,,0.00,WUHU216HW,2014-01-05 15:22:00,
2014-01-05 10:27:00,40.5,34.5,29.82,North,0,0.0,0.0,79,0.00,,,0.00,WUHU216HW,2014-01-05 15:27:00,
2014-01-05 10:32:00,40.7,34.7,29.82,North,0,0.0,0.0,79,0.00,,,0.00,WUHU216HW,2014-01-05 15:32:00,
2014-01-05 10:37:00,41.0,34.9,29.82,North,0,0.0,0.0,79,0.00,,,0.00,WUHU216HW,2014-01-05 15:37:00,
2014-01-05 10:42:00,41.4,35.3,29.81,North,0,0.0,0.0,79,0.00,,,0.00,WUHU216HW,2014-01-05 15:42:00,
2014-01-05 10:47:00,41.4,35.3,29.81,North,0,0.0,0.0,79,0.00,,,0.00,WUHU216HW,2014-01-05 15:47:00,
2014-01-05 10:52:00,41.6,35.2,29.81,North,0,0.0,0.0,78,0.00,,,0.00,WUHU216HW,2014-01-05 15:52:00,
2014-01-05 10:57:00,41.8,35.6,29.80,North,0,0.0,0.0,79,0.00,,,0.00,WUHU216HW,2014-01-05 15:57:00,
2014-01-05 11:02:00,41.9,35.6,29.80,North,0,0.0,0.0,78,0.00,,,0.00,WUHU216HW,2014-01-05 16:02:00,
2014-01-05 11:07:00,41.9,35.6,29.80,North,0,0.0,0.0,78,0.00,,,0.00,WUHU216HW,2014-01-05 16:07:00,
2014-01-05 11:12:00,42.1,35.7,29.80,North,0,0.0,0.0,78,0.00,,,0.00,WUHU216HW,2014-01-05 16:12:00,
2014-01-05 11:17:00,42.1,35.7,29.79,North,0,0.0,0.0,78,0.00,,,0.00,WUHU216HW,2014-01-05 16:17:00,
2014-01-05 11:22:00,42.1,35.7,29.78,North,0,0.0,0.0,78,0.00,,,0.00,WUHU216HW,2014-01-05 16:22:00,
2014-01-05 11:27:00,42.3,35.9,29.77,North,0,0.0,0.0,78,0.00,,,0.00,WUHU216HW,2014-01-05 16:27:00,
2014-01-05 11:32:00,42.5,36.4,29.76,North,0,0.0,0.0,79,0.00,,,0.00,WUHU216HW,2014-01-05 16:32:00,
2014-01-05 11:37:00,42.7,36.5,29.75,North,0,0.0,0.0,79,0.00,,,0.00,WUHU216HW,2014-01-05 16:37:00,
2014-01-05 11:42:00,42.8,36.7,29.75,North,0,0.0,0.0,79,0.00,,,0.00,WUHU216HW,2014-01-05 16:42:00,
2014-01-05 11:47:00,43.0,36.9,29.74,North,0,0.0,0.0,79,0.00,,,0.00,WUHU216HW,2014-01-05 16:47:00,
2014-01-05 11:52:00,43.4,37.3,29.73,North,0,0.0,0.0,79,0.00,,,0.00,WUHU216HW,2014-01-05 16:52:00,
2014-01-05 11:57:00,43.7,38.0,29.72,North,0,0.0,0.0,80,0.00,,,0.00,WUHU216HW,2014-01-05 16:57:00,
2014-01-05 12:02:00,44.1,38.3,29.71,North,0,0.0,0.0,80,0.00,,,0.00,WUHU216HW,2014-01-05 17:02:00,
2014-01-05 12:07:00,44.5,38.7,29.70,North,0,0.0,0.0,80,0.00,,,0.00,WUHU216HW,2014-01-05 17:07:00,
2014-01-05 12:12:00,44.8,39.1,29.70,North,0,0.0,0.0,80,0.00,,,0.00,WUHU216HW,2014-01-05 17:12:00,
2014-01-05 12:17:00,45.0,38.9,29.69,North,0,0.0,0.0,79,0.00,,,0.00,WUHU216HW,2014-01-05 17:17:00,
2014-01-05 12:22:00,45.5,39.8,29.68,North,0,0.0,0.0,80,0.00,,,0.00,WUHU216HW,2014-01-05 17:22:00,
2014-01-05 12:27:00,46.3,40.1,29.67,North,0,0.0,0.0,79,0.00,,,0.00,WUHU216HW,2014-01-05 17:27:00,
2014-01-05 12:32:00,46.8,40.7,29.67,North,0,0.0,0.0,79,0.00,,,0.00,WUHU216HW,2014-01-05 17:32:00,
2014-01-05 12:37:00,47.3,41.5,29.66,North,0,0.0,0.0,80,0.00,,,0.00,WUHU216HW,2014-01-05 17:37:00,
2014-01-05 12:42:00,48.2,41.6,29.64,North,0,0.0,0.0,78,0.00,,,0.00,WUHU216HW,2014-01-05 17:42:00,
2014-01-05 12:47:00,48.6,41.9,29.64,North,0,0.0,0.0,78,0.00,,,0.00,WUHU216HW,2014-01-05 17:47:00,
2014-01-05 12:52:00,49.1,42.2,29.63,North,0,0.0,0.0,77,0.00,,,0.00,WUHU216HW,2014-01-05 17:52:00,
2014-01-05 12:57:00,49.5,42.2,29.63,North,0,0.0,0.0,76,0.00,,,0.00,WUHU216HW,2014-01-05 17:57:00,
2014-01-05 13:02:00,49.7,42.0,29.62,North,0,0.0,0.0,75,0.00,,,0.00,WUHU216HW,2014-01-05 18:02:00,
2014-01-05 13:07:00,50.0,42.4,29.62,North,0,0.0,0.0,75,0.00,,,0.00,WUHU216HW,2014-01-05 18:07:00,
2014-01-05 13:12:00,50.4,42.4,29.63,North,0,0.0,0.0,74,0.00,,,0.00,WUHU216HW,2014-01-05 18:12:00,
2014-01-05 13:17:00,50.6,42.2,29.62,North,0,0.0,0.0,73,0.00,,,0.00,WUHU216HW,2014-01-05 18:17:00,
2014-01-05 13:22:00,50.9,42.6,29.62,North,0,0.0,0.0,73,0.00,,,0.00,WUHU216HW,2014-01-05 18:22:00,
2014-01-05 13:27:00,51.3,42.7,29.62,North,0,0.0,0.0,72,0.00,,,0.00,WUHU216HW,2014-01-05 18:27:00,
2014-01-05 13:32:00,51.7,43.0,29.62,North,0,0.0,0.0,72,0.00,,,0.00,WUHU216HW,2014-01-05 18:32:00,
2014-01-05 13:37:00,51.7,43.0,29.61,North,0,0.0,0.0,72,0.00,,,0.00,WUHU216HW,2014-01-05 18:37:00,
2014-01-05 13:42:00,52.0,43.0,29.62,North,0,0.0,0.0,71,0.00,,,0.00,WUHU216HW,2014-01-05 18:42:00,
2014-01-05 13:47:00,52.2,43.5,29.62,North,0,0.0,0.0,72,0.00,,,0.00,WUHU216HW,2014-01-05 18:47:00,
2014-01-05 13:52:00,52.2,43.5,29.60,North,0,0.0,0.0,72,0.00,,,0.00,WUHU216HW,2014-01-05 18:52:00,
2014-01-05 13:57:00,52.4,43.7,29.59,North,0,0.0,0.0,72,0.00,,,0.00,WUHU216HW,2014-01-05 18:57:00,
2014-01-05 14:02:00,52.6,43.5,29.59,North,0,0.0,0.0,71,0.00,,,0.00,WUHU216HW,2014-01-05 19:02:00,
2014-01-05 14:07:00,52.7,43.7,29.59,North,0,0.0,0.0,71,0.00,,,0.00,WUHU216HW,2014-01-05 19:07:00,
2014-01-05 14:12:00,52.9,43.8,29.59,North,0,0.0,0.0,71,0.00,,,0.00,WUHU216HW,2014-01-05 19:12:00,
2014-01-05 14:17:00,53.1,43.7,29.62,North,0,0.0,0.0,70,0.00,,,0.00,WUHU216HW,2014-01-05 19:17:00,
2014-01-05 14:22:00,53.1,44.0,29.63,North,0,0.0,0.0,71,0.00,,,0.00,WUHU216HW,2014-01-05 19:22:00,
2014-01-05 14:27:00,52.9,44.2,29.64,North,0,0.0,0.0,72,0.01,,,0.00,WUHU216HW,2014-01-05 19:27:00,
2014-01-05 14:32:00,52.6,44.2,29.64,North,0,0.0,0.0,73,0.02,,,0.02,WUHU216HW,2014-01-05 19:32:00,
2014-01-05 14:37:00,50.9,42.6,29.64,North,0,0.0,0.0,73,0.04,,,0.04,WUHU216HW,2014-01-05 19:37:00,
2014-01-05 14:42:00,49.5,41.1,29.63,North,0,0.0,0.0,73,0.05,,,0.06,WUHU216HW,2014-01-05 19:42:00,
2014-01-05 14:47:00,48.4,40.4,29.64,North,0,0.0,0.0,74,0.06,,,0.06,WUHU216HW,2014-01-05 19:47:00,
2014-01-05 14:52:00,47.9,40.2,29.64,North,0,0.0,0.0,75,0.07,,,0.08,WUHU216HW,2014-01-05 19:52:00,
2014-01-05 14:57:00,47.5,40.3,29.64,North,0,0.0,0.0,76,0.08,,,0.08,WUHU216HW,2014-01-05 19:57:00,
2014-01-05 15:02:00,47.3,40.2,29.62,North,0,0.0,0.0,76,0.10,,,0.10,WUHU216HW,2014-01-05 20:02:00,
2014-01-05 15:07:00,47.0,40.1,29.61,North,0,0.0,0.0,77,0.11,,,0.12,WUHU216HW,2014-01-05 20:07:00,
2014-01-05 15:12:00,46.6,40.1,29.59,North,0,0.0,0.0,78,0.12,,,0.13,WUHU216HW,2014-01-05 20:12:00,
2014-01-05 15:17:00,46.1,39.3,29.59,North,0,0.0,0.0,77,0.12,,,0.13,WUHU216HW,2014-01-05 20:17:00,
2014-01-05 15:22:00,45.7,39.0,29.59,North,0,0.0,0.0,77,0.14,,,0.13,WUHU216HW,2014-01-05 20:22:00,
2014-01-05 15:27:00,45.5,39.1,29.59,North,0,0.0,0.0,78,0.13,,,0.15,WUHU216HW,2014-01-05 20:27:00,
2014-01-05 15:32:00,45.4,38.9,29.58,North,0,0.0,0.0,78,0.11,,,0.15,WUHU216HW,2014-01-05 20:32:00,
2014-01-05 15:37:00,45.2,39.1,29.58,North,0,0.0,0.0,79,0.10,,,0.15,WUHU216HW,2014-01-05 20:37:00,
2014-01-05 15:42:00,45.0,38.9,29.56,North,0,0.0,0.0,79,0.09,,,0.16,WUHU216HW,2014-01-05 20:42:00,
2014-01-05 15:47:00,44.8,39.1,29.56,North,0,0.0,0.0,80,0.10,,,0.17,WUHU216HW,2014-01-05 20:47:00,
2014-01-05 15:52:00,44.5,38.7,29.57,North,0,0.0,0.0,80,0.09,,,0.17,WUHU216HW,2014-01-05 20:52:00,
2014-01-05 15:57:00,44.3,38.5,29.56,North,0,0.0,0.0,80,0.07,,,0.17,WUHU216HW,2014-01-05 20:57:00,
2014-01-05 16:02:00,44.3,38.8,29.57,North,0,0.0,0.0,81,0.08,,,0.19,WUHU216HW,2014-01-05 21:02:00,
2014-01-05 16:07:00,44.3,38.8,29.57,North,0,0.0,0.0,81,0.06,,,0.19,WUHU216HW,2014-01-05 21:07:00,
2014-01-05 16:12:00,44.3,38.8,29.57,North,0,0.0,0.0,81,0.07,,,0.20,WUHU216HW,2014-01-05 21:12:00,
2014-01-05 16:17:00,44.3,38.8,29.57,North,0,0.0,0.0,81,0.07,,,0.21,WUHU216HW,2014-01-05 21:17:00,
2014-01-05 16:22:00,44.1,38.6,29.57,North,0,0.0,0.0,81,0.06,,,0.21,WUHU216HW,2014-01-05 21:22:00,
2014-01-05 16:27:00,44.1,38.6,29.57,North,0,0.0,0.0,81,0.06,,,0.21,WUHU216HW,2014-01-05 21:27:00,
2014-01-05 16:32:00,44.1,39.0,29.56,North,0,0.0,0.0,82,0.07,,,0.21,WUHU216HW,2014-01-05 21:32:00,
2014-01-05 16:37:00,43.9,38.8,29.56,North,0,0.0,0.0,82,0.07,,,0.23,WUHU216HW,2014-01-05 21:37:00,
2014-01-05 16:42:00,43.9,38.8,29.55,North,0,0.0,0.0,82,0.06,,,0.23,WUHU216HW,2014-01-05 21:42:00,
2014-01-05 16:47:00,43.9,38.8,29.55,North,0,0.0,0.0,82,0.06,,,0.23,WUHU216HW,2014-01-05 21:47:00,
2014-01-05 16:52:00,43.7,38.9,29.54,North,0,0.0,0.0,83,0.06,,,0.23,WUHU216HW,2014-01-05 21:52:00,
2014-01-05 16:57:00,43.7,38.9,29.55,North,0,0.0,0.0,83,0.05,,,0.23,WUHU216HW,2014-01-05 21:57:00,
2014-01-05 17:02:00,43.6,38.7,29.54,North,0,0.0,0.0,83,0.06,,,0.24,WUHU216HW,2014-01-05 22:02:00,
2014-01-05 17:07:00,43.6,38.7,29.54,North,0,0.0,0.0,83,0.06,,,0.25,WUHU216HW,2014-01-05 22:07:00,
2014-01-05 17:12:00,43.6,38.7,29.54,North,0,0.0,0.0,83,0.06,,,0.27,WUHU216HW,2014-01-05 22:12:00,
2014-01-05 17:17:00,43.4,38.9,29.54,North,0,0.0,0.0,84,0.07,,,0.27,WUHU216HW,2014-01-05 22:17:00,
2014-01-05 17:22:00,43.4,38.9,29.53,North,0,0.0,0.0,84,0.08,,,0.29,WUHU216HW,2014-01-05 22:22:00,
2014-01-05 17:27:00,43.4,38.9,29.53,North,0,0.0,0.0,84,0.08,,,0.29,WUHU216HW,2014-01-05 22:27:00,
2014-01-05 17:32:00,43.4,38.9,29.53,North,0,0.0,0.0,84,0.08,,,0.30,WUHU216HW,2014-01-05 22:32:00,
2014-01-05 17:37:00,43.2,38.7,29.52,North,0,0.0,0.0,84,0.08,,,0.31,WUHU216HW,2014-01-05 22:37:00,
2014-01-05 17:42:00,43.2,39.0,29.52,North,0,0.0,0.0,85,0.08,,,0.31,WUHU216HW,2014-01-05 22:42:00,
2014-01-05 17:47:00,43.2,39.0,29.52,North,0,0.0,0.0,85,0.09,,,0.32,WUHU216HW,2014-01-05 22:47:00,
2014-01-05 17:52:00,43.2,39.0,29.52,North,0,0.0,0.0,85,0.09,,,0.32,WUHU216HW,2014-01-05 22:52:00,
2014-01-05 17:57:00,43.2,39.0,29.51,North,0,0.0,0.0,85,0.08,,,0.32,WUHU216HW,2014-01-05 22:57:00,
2014-01-05 18:02:00,43.2,39.0,29.51,North,0,0.0,0.0,85,0.07,,,0.32,WUHU216HW,2014-01-05 23:02:00,
2014-01-05 18:07:00,43.4,39.4,29.51,North,0,0.0,0.0,86,0.08,,,0.33,WUHU216HW,2014-01-05 23:07:00,
2014-01-05 18:12:00,43.6,39.6,29.51,North,0,0.0,0.0,86,0.06,,,0.33,WUHU216HW,2014-01-05 23:12:00,
2014-01-05 18:17:00,43.6,40.0,29.51,North,0,0.0,0.0,87,0.04,,,0.33,WUHU216HW,2014-01-05 23:17:00,
2014-01-05 18:22:00,43.9,40.3,29.50,North,0,0.0,0.0,87,0.04,,,0.33,WUHU216HW,2014-01-05 23:22:00,
2014-01-05 18:27:00,44.3,41.0,29.51,North,0,0.0,0.0,88,0.04,,,0.33,WUHU216HW,2014-01-05 23:27:00,
2014-01-05 18:32:00,44.5,41.5,29.52,North,0,0.0,0.0,89,0.02,,,0.33,WUHU216HW,2014-01-05 23:32:00,
2014-01-05 18:37:00,44.3,41.0,29.52,North,0,0.0,0.0,88,0.02,,,0.33,WUHU216HW,2014-01-05 23:37:00,
2014-01-05 18:42:00,43.9,40.6,29.53,North,0,0.0,0.0,88,0.02,,,0.00,WUHU216HW,2014-01-05 23:42:00,
2014-01-05 18:47:00,43.9,40.6,29.53,North,0,0.0,0.0,88,0.03,,,0.01,WUHU216HW,2014-01-05 23:47:00,
2014-01-05 18:52:00,43.9,40.6,29.53,North,0,0.0,0.0,88,0.03,,,0.01,WUHU216HW,2014-01-05 23:52:00,
2014-01-05 18:57:00,43.9,41.0,29.54,North,0,0.0,0.0,89,0.03,,,0.01,WUHU216HW,2014-01-05 23:57:00,
2014-01-05 19:02:00,43.9,41.0,29.55,North,0,0.0,0.0,89,0.02,,,0.01,WUHU216HW,2014-01-06 00:02:00,
2014-01-05 19:07:00,43.6,40.2,29.55,North,0,0.0,0.0,88,0.02,,,0.01,WUHU216HW,2014-01-06 00:07:00,
2014-01-05 19:12:00,43.2,39.9,29.56,North,0,0.0,0.0,88,0.02,,,0.01,WUHU216HW,2014-01-06 00:12:00,
2014-01-05 19:17:00,42.8,39.3,29.57,North,0,0.0,0.0,87,0.02,,,0.01,WUHU216HW,2014-01-06 00:17:00,
2014-01-05 19:22:00,42.5,38.9,29.57,North,0,0.0,0.0,87,0.03,,,0.02,WUHU216HW,2014-01-06 00:22:00,
2014-01-05 19:27:00,41.9,38.0,29.57,North,0,0.0,0.0,86,0.03,,,0.02,WUHU216HW,2014-01-06 00:27:00,
2014-01-05 19:32:00,41.4,37.4,29.59,North,0,0.0,0.0,86,0.04,,,0.03,WUHU216HW,2014-01-06 00:32:00,
2014-01-05 19:37:00,41.0,36.8,29.59,North,0,0.0,0.0,85,0.03,,,0.03,WUHU216HW,2014-01-06 00:37:00,
2014-01-05 19:42:00,40.3,35.8,29.59,North,0,0.0,0.0,84,0.03,,,0.03,WUHU216HW,2014-01-06 00:42:00,
2014-01-05 19:47:00,39.8,35.3,29.60,North,0,0.0,0.0,84,0.02,,,0.03,WUHU216HW,2014-01-06 00:47:00,
2014-01-05 19:52:00,39.2,34.8,29.61,North,0,0.0,0.0,84,0.02,,,0.03,WUHU216HW,2014-01-06 00:52:00,
2014-01-05 19:57:00,38.9,34.5,29.61,North,0,0.0,0.0,84,0.02,,,0.03,WUHU216HW,2014-01-06 00:57:00,
2014-01-05 20:02:00,38.3,34.2,29.62,North,0,0.0,0.0,85,0.02,,,0.03,WUHU216HW,2014-01-06 01:02:00,
2014-01-05 20:07:00,38.0,33.8,29.62,North,0,0.0,0.0,85,0.02,,,0.03,WUHU216HW,2014-01-06 01:07:00,
2014-01-05 20:12:00,37.8,33.7,29.62,North,0,0.0,0.0,85,0.02,,,0.03,WUHU216HW,2014-01-06 01:12:00,
2014-01-05 20:17:00,37.4,33.3,29.63,North,0,0.0,0.0,85,0.01,,,0.03,WUHU216HW,2014-01-06 01:17:00,
2014-01-05 20:22:00,37.1,32.9,29.64,North,0,0.0,0.0,85,0.01,,,0.03,WUHU216HW,2014-01-06 01:22:00,
2014-01-05 20:27:00,37.1,33.2,29.64,North,0,0.0,0.0,86,0.01,,,0.03,WUHU216HW,2014-01-06 01:27:00,
2014-01-05 20:32:00,36.9,33.0,29.64,North,0,0.0,0.0,86,0.00,,,0.03,WUHU216HW,2014-01-06 01:32:00,
2014-01-05 20:37:00,36.4,32.5,29.65,North,0,0.0,0.0,86,0.00,,,0.03,WUHU216HW,2014-01-06 01:37:00,
2014-01-05 20:42:00,36.0,32.1,29.65,North,0,0.0,0.0,86,0.00,,,0.03,WUHU216HW,2014-01-06 01:42:00,
2014-01-05 20:47:00,35.8,32.0,29.67,North,0,0.0,0.0,86,0.00,,,0.03,WUHU216HW,2014-01-06 01:47:00,
2014-01-05 20:52:00,35.5,31.3,29.67,North,0,0.0,0.0,85,0.00,,,0.03,WUHU216HW,2014-01-06 01:52:00,
2014-01-05 20:57:00,34.9,30.8,29.68,North,0,0.0,0.0,85,0.00,,,0.03,WUHU216HW,2014-01-06 01:57:00,
2014-01-05 21:02:00,34.6,30.2,29.69,North,0,0.0,0.0,84,0.00,,,0.03,WUHU216HW,2014-01-06 02:02:00,
2014-01-05 21:07:00,34.2,29.8,29.69,North,0,0.0,0.0,84,0.00,,,0.03,WUHU216HW,2014-01-06 02:07:00,
2014-01-05 21:12:00,33.8,29.4,29.70,North,0,0.0,0.0,84,0.00,,,0.03,WUHU216HW,2014-01-06 02:12:00,
2014-01-05 21:17:00,33.5,29.3,29.70,North,0,0.0,0.0,85,0.00,,,0.03,WUHU216HW,2014-01-06 02:17:00,
2014-01-05 21:22:00,33.3,29.3,29.70,North,0,0.0,0.0,85,0.00,,,0.03,WUHU216HW,2014-01-06 02:22:00,
2014-01-05 21:27:00,33.1,28.8,29.73,North,0,0.0,0.0,84,0.00,,,0.03,WUHU216HW,2014-01-06 02:27:00,
2014-01-05 21:32:00,32.8,28.4,29.72,North,0,0.0,0.0,84,0.00,,,0.03,WUHU216HW,2014-01-06 02:32:00,
2014-01-05 21:37:00,32.4,27.8,29.73,North,0,0.0,0.0,83,0.00,,,0.03,WUHU216HW,2014-01-06 02:37:00,
2014-01-05 21:42:00,32.0,27.6,29.75,North,0,0.0,0.0,83,0.00,,,0.03,WUHU216HW,2014-01-06 02:42:00,
2014-01-05 21:47:00,32.0,27.6,29.75,North,0,0.0,0.0,83,0.00,,,0.03,WUHU216HW,2014-01-06 02:47:00,
2014-01-05 21:52:00,31.9,27.4,29.76,North,0,0.0,0.0,83,0.00,,,0.03,WUHU216HW,2014-01-06 02:52:00,
2014-01-05 21:57:00,31.7,27.2,29.77,North,0,0.0,0.0,83,0.00,,,0.03,WUHU216HW,2014-01-06 02:57:00,
2014-01-05 22:02:00,31.5,27.0,29.76,North,0,0.0,0.0,83,0.00,,,0.03,WUHU216HW,2014-01-06 03:02:00,
2014-01-05 22:07:00,31.3,26.8,29.77,North,0,0.0,0.0,83,0.00,,,0.03,WUHU216HW,2014-01-06 03:07:00,
2014-01-05 22:12:00,31.0,26.1,29.78,North,0,0.0,0.0,82,0.00,,,0.03,WUHU216HW,2014-01-06 03:12:00,
2014-01-05 22:17:00,30.4,25.3,29.79,North,0,0.0,0.0,81,0.00,,,0.03,WUHU216HW,2014-01-06 03:17:00,
2014-01-05 22:22:00,29.9,25.0,29.79,North,0,0.0,0.0,82,0.00,,,0.03,WUHU216HW,2014-01-06 03:22:00,
2014-01-05 22:27:00,29.5,24.7,29.79,North,0,0.0,0.0,82,0.00,,,0.03,WUHU216HW,2014-01-06 03:27:00,
2014-01-05 22:32:00,29.2,24.3,29.80,North,0,0.0,0.0,82,0.00,,,0.03,WUHU216HW,2014-01-06 03:32:00,
2014-01-05 22:37:00,28.6,23.5,29.81,North,0,0.0,0.0,81,0.00,,,0.03,WUHU216HW,2014-01-06 03:37:00,
2014-01-05 22:42:00,28.1,22.7,29.82,North,0,0.0,0.0,80,0.00,,,0.03,WUHU216HW,2014-01-06 03:42:00,
2014-01-05 22:47:00,27.7,22.6,29.82,North,0,0.0,0.0,81,0.00,,,0.03,WUHU216HW,2014-01-06 03:47:00,
2014-01-05 22:52:00,27.7,22.6,29.83,North,0,0.0,0.0,81,0.00,,,0.03,WUHU216HW,2014-01-06 03:52:00,
2014-01-05 22:57:00,27.2,22.1,29.84,North,0,0.0,0.0,81,0.00,,,0.03,WUHU216HW,2014-01-06 03:57:00,
2014-01-05 23:02:00,26.6,21.2,29.84,North,0,0.0,0.0,80,0.00,,,0.03,WUHU216HW,2014-01-06 04:02:00,
2014-01-05 23:07:00,26.3,21.3,29.85,North,0,0.0,0.0,81,0.00,,,0.03,WUHU216HW,2014-01-06 04:07:00,
2014-01-05 23:12:00,25.7,20.1,29.86,North,0,0.0,0.0,79,0.00,,,0.03,WUHU216HW,2014-01-06 04:12:00,
2014-01-05 23:17:00,25.2,19.6,29.87,North,0,0.0,0.0,79,0.00,,,0.03,WUHU216HW,2014-01-06 04:17:00,
2014-01-05 23:22:00,24.8,19.3,29.87,North,0,0.0,0.0,79,0.00,,,0.03,WUHU216HW,2014-01-06 04:22:00,
2014-01-05 23:27:00,24.1,18.3,29.88,North,0,0.0,0.0,78,0.00,,,0.03,WUHU216HW,2014-01-06 04:27:00,
2014-01-05 23:32:00,23.4,16.9,29.88,North,0,0.0,0.0,76,0.00,,,0.03,WUHU216HW,2014-01-06 04:32:00,
2014-01-05 23:37:00,22.7,16.6,29.88,North,0,0.0,0.0,77,0.00,,,0.03,WUHU216HW,2014-01-06 04:37:00,
2014-01-05 23:42:00,22.3,16.2,29.89,North,0,0.0,0.0,77,0.00,,,0.03,WUHU216HW,2014-01-06 04:42:00,
2014-01-05 23:47:00,22.1,16.0,29.90,North,0,0.0,0.0,77,0.00,,,0.03,WUHU216HW,2014-01-06 04:47:00,
2014-01-05 23:52:00,22.0,16.1,29.91,North,0,0.0,0.0,78,0.00,,,0.03,WUHU216HW,2014-01-06 04:52:00,
2014-01-05 23:57:00,21.6,15.8,29.91,North,0,0.0,0.0,78,0.00,,,0.03,WUHU216HW,2014-01-06 04:57:00,